GEFSCGP_500_meanwind_336.txt.gz
Wind_Speed
27 28 27 27 29 29 30 30 31 32 34 33 34 34 33 32 33 33 33 33 34 35 36 36 36 35 35 35 36 37 37 36 36 36 36 37 37 36 38 38 37 36 35 35
26 26 26 28 28 28 29 30 32 32 33 33 33 33 33 32 33 33 34 34 35 35 36 36 36 36 36 36 35 36 36 37 37 37 36 37 38 37 37 37 38 38 37 36
27 26 26 28 28 29 30 30 31 33 34 34 34 34 33 33 33 33 34 35 35 35 35 37 37 36 37 37 37 36 37 37 37 37 37 37 38 38 37 37 38 38 38 38
28 27 27 28 28 29 30 31 32 33 34 34 35 36 32 33 34 34 34 35 36 35 36 37 38 38 38 38 38 38 38 37 37 38 38 38 38 38 37 37 38 38 38 38
28 28 28 28 28 30 31 31 32 33 34 34 34 36 33 33 34 34 35 35 36 36 36 37 38 38 38 38 38 38 38 38 38 38 39 39 39 39 38 38 38 39 39 39
29 29 29 29 29 30 31 32 33 34 35 36 34 35 34 33 33 34 35 35 36 36 37 37 38 38 39 39 39 38 39 39 39 38 38 39 39 39 39 38 39 40 40 40
31 31 30 30 30 30 30 32 33 35 36 37 35 36 35 33 33 33 35 35 36 36 37 38 38 38 39 39 40 40 40 40 40 39 39 39 39 40 40 40 40 40 41 41
32 32 31 31 31 31 31 32 34 35 37 37 35 36 35 33 33 34 35 36 36 37 38 38 38 38 39 40 40 40 41 41 41 41 41 40 41 41 42 42 41 41 41 41
34 34 33 32 32 32 33 33 34 36 37 38 38 36 34 33 34 34 35 36 37 37 38 38 39 40 40 40 41 41 41 41 42 42 42 42 43 43 44 43 43 43 43 43
34 35 34 33 34 34 34 34 34 35 37 38 39 38 37 36 36 36 37 37 38 38 38 39 39 40 40 41 41 42 42 42 42 43 43 44 44 44 44 45 44 45 44 44
36 37 36 35 34 34 34 34 35 36 38 39 41 39 39 39 38 37 37 38 38 39 39 39 39 40 40 41 42 42 43 43 43 43 43 43 44 44 44 45 45 45 45 46
36 37 38 37 35 35 35 36 36 37 38 40 42 42 39 40 40 40 40 39 39 40 40 39 39 40 41 42 42 43 44 44 44 44 44 44 44 45 45 46 46 47 47 47
37 38 39 39 38 37 37 37 37 38 39 40 41 42 40 40 41 41 41 41 41 40 41 41 40 40 41 42 42 43 44 45 45 45 46 46 46 46 47 47 47 48 49 49
38 39 39 40 39 38 38 37 37 39 40 40 40 39 39 39 40 42 41 41 42 42 42 43 42 41 41 42 42 43 44 46 46 47 48 48 48 48 48 49 49 50 50 51
38 39 39 39 38 39 39 39 39 40 40 41 39 38 37 38 40 42 42 42 43 44 44 44 44 43 43 43 43 44 45 45 46 48 48 49 49 50 50 50 50 51 52 52
38 39 39 39 39 39 40 40 40 40 40 40 39 38 36 38 40 41 41 41 42 43 44 44 44 44 44 45 45 45 46 46 47 48 48 49 49 50 51 51 52 52 52 53
38 38 38 39 39 40 41 38 39 39 39 39 39 37 37 38 40 41 42 42 42 43 43 44 44 43 43 43 44 44 45 45 46 46 47 48 49 49 50 50 51 51 51 51
37 37 38 39 38 41 38 37 37 38 38 38 39 38 37 38 40 41 42 43 43 43 43 43 44 44 44 44 44 44 45 45 45 45 46 46 47 48 49 49 49 48 49 49
37 38 39 39 39 40 37 36 36 37 37 37 38 38 38 39 41 41 42 42 42 42 42 42 43 43 44 44 45 45 45 45 45 46 46 46 46 47 48 48 48 48 48 48
37 37 39 39 40 40 37 36 36 38 38 36 37 38 39 41 42 41 41 41 41 41 41 41 42 42 43 44 44 45 45 45 45 46 46 47 47 47 47 48 48 48 48 48
38 38 39 39 40 40 37 37 38 39 38 37 38 38 39 40 40 40 39 40 40 40 41 41 41 42 42 43 43 43 44 45 46 47 47 47 47 48 48 48 48 48 49 49
38 38 39 39 40 39 37 38 38 39 39 39 40 40 40 40 40 40 40 40 40 41 41 41 41 41 42 43 44 44 44 45 46 47 47 48 48 48 48 48 48 48 48 48
39 39 39 39 39 38 37 38 38 38 40 41 41 41 41 41 40 41 41 41 41 41 41 41 42 42 42 43 43 44 44 44 44 45 45 46 47 47 47 47 47 47 47 47
40 39 39 40 39 39 38 38 38 39 39 40 40 41 41 41 40 41 41 41 41 41 41 41 42 42 43 43 44 44 44 44 44 45 45 45 45 46 45 45 46 46 46 46
40 40 41 41 39 39 39 39 39 39 40 40 41 41 41 41 41 42 42 41 41 42 42 42 42 42 42 42 43 44 44 45 45 45 45 45 45 45 44 44 45 45 45 45
39 39 40 41 39 39 39 39 39 40 41 41 42 43 43 43 43 43 42 42 42 43 43 42 42 42 42 43 43 43 44 44 44 44 44 44 43 43 43 43 43 43 44 45

GEFSCGP_500_meanwind_342.txt.gz
Wind_Speed
25 25 25 25 26 28 29 29 30 30 30 32 32 32 31 32 33 32 32 32 32 32 32 32 32 32 32 33 33 34 34 34 34 34 34 34 34 34 34 34 34 34 35 34
25 25 25 26 27 28 29 29 29 30 30 31 31 32 31 31 32 32 32 32 32 32 32 33 33 33 33 33 34 34 35 36 36 35 36 36 37 37 37 36 36 36 36 36
25 25 26 27 27 28 28 29 29 30 31 32 32 31 30 31 31 31 32 32 33 33 32 33 34 35 35 34 35 35 36 36 37 36 37 37 38 38 37 37 37 37 38 37
27 26 27 27 27 28 28 29 30 31 32 32 33 33 29 30 31 31 31 32 32 33 33 33 34 36 36 36 36 36 36 37 37 37 37 38 38 38 38 38 39 39 39 39
28 27 27 28 27 28 29 29 30 31 33 33 33 34 30 30 30 30 31 32 32 33 33 33 34 35 35 36 36 37 37 37 38 38 38 38 39 39 39 39 40 40 39 40
29 29 29 28 29 29 29 30 30 31 33 34 32 35 33 30 30 30 31 32 33 33 33 34 34 35 36 36 36 37 37 38 39 40 40 40 40 40 41 40 41 41 41 42
30 29 29 29 29 29 29 30 31 32 34 35 34 35 34 31 30 30 31 31 32 32 33 34 35 35 35 36 37 37 37 38 38 39 40 41 41 42 42 43 43 42 43 43
32 31 30 30 30 30 29 31 32 35 36 36 36 37 35 32 31 31 32 32 32 32 32 33 34 35 36 36 37 37 38 38 39 39 40 41 41 42 43 44 44 44 44 44
33 33 32 32 31 31 32 33 34 36 38 38 38 38 36 33 33 33 32 33 33 33 33 33 34 36 37 37 37 37 39 39 40 40 40 41 42 42 43 43 44 44 44 45
34 35 33 33 33 33 33 34 34 35 38 39 40 38 37 34 34 34 34 34 34 34 35 35 35 36 37 38 38 38 39 39 40 41 41 41 41 42 43 44 44 45 45 45
35 35 35 35 34 34 34 35 36 37 38 40 41 39 36 36 36 35 35 36 36 37 36 36 37 38 38 39 39 39 39 40 41 41 42 43 43 43 44 45 45 46 46 46
35 37 37 36 36 36 35 35 36 37 38 39 41 40 37 37 36 36 36 36 37 38 38 38 39 39 39 40 40 40 40 41 42 43 44 44 44 45 45 45 46 47 47 47
35 37 38 38 38 38 38 37 37 38 39 40 40 40 37 37 36 36 36 37 38 39 39 40 41 41 40 40 41 41 41 42 43 44 45 46 46 46 46 46 47 48 48 49
35 37 37 38 38 38 38 38 38 39 41 41 40 39 37 36 36 36 37 38 39 40 40 40 41 42 42 42 42 42 43 44 44 45 46 46 47 48 48 47 48 48 49 49
36 37 37 37 38 38 38 38 39 40 41 41 40 39 37 37 37 38 39 39 40 41 41 41 42 42 43 44 43 43 44 45 45 46 47 47 48 48 49 49 49 49 50 50
36 38 38 37 37 38 38 38 39 39 40 40 40 40 37 38 38 38 39 39 40 41 41 42 42 43 44 44 45 45 45 46 46 47 47 48 48 49 50 50 51 51 51 51
37 38 39 39 38 38 38 36 37 38 38 39 39 37 36 37 37 38 38 39 40 40 40 41 42 43 43 44 44 44 45 46 47 47 48 48 49 50 51 52 53 53 53 53
38 39 40 40 39 40 37 35 36 35 35 36 37 36 35 36 37 38 38 39 39 39 40 40 41 41 42 42 43 43 44 45 46 47 48 49 49 50 50 51 52 53 54 54
38 39 39 40 40 40 37 36 36 36 35 34 34 34 35 36 37 37 38 38 39 39 40 41 41 41 41 42 42 43 44 45 46 46 47 47 48 49 49 50 50 52 52 53
38 38 39 40 41 40 37 36 35 37 37 35 35 35 35 36 38 37 37 38 39 39 40 40 41 41 41 42 43 43 44 45 46 46 47 47 47 48 48 49 49 50 51 52
37 38 39 40 41 40 38 37 37 38 36 36 37 37 38 38 38 38 39 39 39 40 40 41 41 42 42 42 42 43 44 44 45 46 46 47 47 48 48 48 48 49 49 50
37 38 38 39 40 38 37 38 38 38 38 37 38 38 39 39 39 39 40 40 40 40 40 40 41 41 41 42 42 42 43 44 44 44 45 45 46 47 47 47 48 48 48 49
38 38 39 39 39 38 38 38 38 38 38 38 38 38 39 39 40 40 40 40 40 40 40 41 41 41 41 42 42 42 42 43 43 42 42 42 43 44 45 46 46 47 47 47
37 37 38 39 38 38 38 38 38 38 38 38 37 38 38 39 39 39 39 39 40 40 40 41 41 41 42 42 42 42 42 42 41 41 41 41 42 43 44 44 45 45 45 45
36 37 37 37 36 37 36 36 37 37 37 38 38 38 39 39 39 39 39 40 39 40 41 41 42 42 42 42 41 41 41 41 41 41 41 42 42 42 43 43 44 44 44 44
37 37 37 37 36 36 36 36 38 38 38 39 39 40 40 41 40 40 40 40 40 41 41 41 41 41 41 41 41 41 40 40 40 40 40 40 40 40 41 41 42 42 43 43

GEFSCGP_500_meanwind_348.txt.gz
Wind_Speed
29 29 28 28 29 29 29 29 30 30 31 32 32 32 30 31 32 32 34 34 34 34 34 34 34 34 34 34 34 34 33 33 34 33 33 33 33 33 32 33 33 34 35 36
30 30 29 29 30 30 30 30 30 31 32 32 32 31 30 30 31 32 33 34 35 35 34 34 34 34 35 35 35 35 35 35 35 35 35 34 34 34 34 34 34 35 36 36
31 30 29 30 30 30 30 30 30 32 33 34 35 33 31 31 31 31 32 32 34 35 35 35 35 35 35 36 36 35 35 36 36 37 37 36 36 36 36 36 36 37 36 36
32 31 30 30 31 31 32 31 31 33 34 35 35 36 31 31 31 31 32 31 32 34 35 35 35 36 36 36 36 37 36 37 37 38 39 38 38 38 38 38 38 38 38 38
33 32 32 31 31 32 33 33 33 33 35 36 35 37 33 31 32 32 32 31 31 32 33 34 35 36 36 36 36 37 37 37 37 39 40 40 39 39 39 39 40 40 41 41
34 34 34 33 32 32 33 34 35 36 36 37 35 37 35 32 32 32 33 32 32 33 33 34 35 36 36 37 37 37 38 38 38 39 40 41 41 40 40 41 41 41 42 42
34 35 35 34 34 33 34 34 36 37 37 37 36 38 35 33 33 33 33 34 34 34 34 34 35 37 37 37 37 37 38 38 38 39 40 41 41 41 41 41 42 42 43 43
35 35 35 35 36 36 35 35 36 38 38 38 37 38 35 34 33 34 34 35 35 35 35 36 36 37 37 38 38 38 39 39 38 39 39 41 42 42 42 42 42 43 42 43
36 36 35 35 36 36 36 37 36 38 40 41 41 39 36 35 34 34 34 35 35 36 36 35 36 36 37 38 39 39 39 40 40 40 40 42 42 42 43 43 43 43 44 44
36 37 35 36 37 37 36 36 36 38 40 41 42 40 38 36 35 35 35 35 35 36 37 36 36 37 37 38 39 39 40 41 41 40 41 42 42 43 43 43 44 44 44 44
36 37 36 36 37 37 36 36 37 39 40 42 43 41 39 38 38 37 36 36 36 37 38 38 37 38 38 39 39 40 41 41 42 41 41 42 43 43 44 44 44 45 45 46
37 38 38 37 37 38 38 38 38 40 42 43 45 43 40 39 39 38 37 37 37 38 39 39 39 39 39 40 40 41 41 41 42 43 43 43 44 44 45 45 45 45 46 46
38 38 38 38 39 39 40 39 40 41 43 43 44 44 40 40 39 38 38 37 37 38 39 40 40 40 41 41 42 42 42 42 43 44 44 45 46 46 46 47 46 47 47 47
38 39 39 39 38 39 40 40 40 42 43 44 44 42 40 40 39 38 38 38 39 38 39 40 41 42 43 43 44 44 44 45 45 46 46 46 46 47 48 48 48 49 49 49
38 39 39 39 39 39 39 39 40 42 43 44 42 41 40 40 39 39 38 38 38 39 40 41 41 42 44 44 45 45 45 46 46 46 47 47 47 47 48 49 49 50 51 51
38 40 41 41 41 41 41 39 40 42 43 43 43 40 39 40 40 39 39 40 40 40 40 40 41 42 44 44 45 45 46 46 46 46 47 48 48 49 49 50 50 51 52 52
38 40 41 41 40 42 41 39 40 42 42 42 43 40 40 41 41 40 41 41 42 42 41 41 42 43 44 44 45 46 47 47 47 47 47 48 49 49 50 51 51 52 53 53
38 39 41 42 41 43 41 39 39 40 40 41 41 41 42 41 40 41 41 42 42 42 42 42 43 43 43 44 45 47 47 48 48 49 49 49 49 50 51 52 52 53 53 54
38 39 41 43 44 44 40 39 39 40 40 39 39 40 40 40 41 40 41 41 42 42 42 43 43 43 43 45 45 46 47 48 48 49 49 50 50 50 51 52 52 53 53 54
38 40 41 43 44 44 40 39 40 41 40 38 39 38 38 39 40 38 39 40 41 41 42 43 43 43 43 44 44 44 45 46 47 48 48 49 50 50 51 51 52 52 52 52
39 41 42 43 44 43 40 40 40 42 40 38 39 39 39 39 39 38 38 39 40 41 42 42 43 43 43 44 44 44 44 45 46 47 48 48 49 49 49 49 50 50 50 50
39 40 41 42 43 41 39 40 41 41 40 40 40 40 40 40 40 40 40 41 42 42 42 42 42 42 43 43 43 44 44 45 46 46 46 47 47 48 48 48 48 48 48 48
39 40 41 42 41 39 40 40 40 40 41 41 42 42 41 41 41 42 41 42 42 43 43 42 42 42 42 42 43 43 43 43 44 44 45 46 47 47 47 47 47 46 46 46
40 40 41 41 40 40 40 40 40 40 40 40 41 41 40 40 41 42 42 42 42 42 42 42 43 42 42 41 41 42 42 42 42 43 43 44 44 44 44 45 45 45 45 45
41 41 41 41 40 40 39 39 39 39 39 40 40 40 40 41 41 42 42 42 43 42 43 43 43 42 41 41 41 42 42 42 42 42 42 42 42 42 42 42 43 43 43 43
42 42 42 41 39 40 38 37 37 38 38 39 39 40 41 41 42 42 42 42 42 42 42 42 42 42 41 41 41 41 42 42 42 42 42 42 42 42 42 42 41 41 41 41

GEFSCGP_500_meanwind_354.txt.gz
Wind_Speed
28 28 27 27 28 28 28 29 29 29 30 30 30 30 30 29 30 30 30 30 30 31 31 32 32 33 34 34 33 33 33 33 34 34 34 33 33 34 35 35 35 35 35 35
29 29 28 29 29 30 30 30 30 30 31 32 31 31 30 30 29 30 30 29 30 31 31 32 33 33 33 34 34 34 34 35 35 35 34 34 34 35 35 35 36 36 36 35
31 30 30 30 30 31 31 32 31 32 31 33 33 32 31 30 30 30 30 30 30 31 31 31 32 32 33 33 34 35 35 35 35 35 35 35 35 36 36 36 36 37 37 37
32 31 31 31 32 32 33 33 33 34 34 34 34 35 31 30 30 30 31 32 32 32 32 32 32 32 32 33 34 35 36 36 36 36 36 36 36 36 37 37 37 37 37 37
33 33 33 33 33 33 34 34 35 35 36 37 36 37 34 32 31 31 32 32 33 33 33 33 33 32 32 33 34 35 36 37 37 38 37 37 37 37 37 38 38 38 38 38
34 35 35 34 33 34 34 35 36 37 38 39 37 38 38 35 33 33 33 33 34 34 34 33 33 34 33 33 33 34 36 37 38 38 37 37 38 38 38 38 38 38 39 39
35 35 36 36 35 34 34 34 36 38 39 41 39 40 39 37 35 34 34 34 34 34 35 34 34 34 34 34 34 35 35 36 37 38 38 38 38 38 38 38 39 39 40 40
36 36 35 36 35 35 35 35 36 38 40 41 41 41 39 37 36 36 35 35 35 35 35 35 36 36 35 35 35 34 35 36 37 38 39 40 40 40 40 40 40 41 41 41
37 37 36 36 35 36 36 36 36 38 40 41 42 41 39 37 37 37 37 36 36 36 36 36 37 37 36 36 36 35 35 36 38 39 40 41 42 41 41 41 42 42 42 42
37 38 37 36 36 36 36 37 37 38 39 41 43 41 39 37 36 37 38 38 38 37 37 37 37 37 37 36 36 37 37 37 39 40 41 42 43 43 43 43 43 43 43 43
36 37 37 36 36 35 35 36 36 38 40 41 42 41 38 38 37 37 37 38 39 39 39 38 38 38 38 38 37 38 38 38 39 40 41 42 43 44 45 45 45 45 45 45
36 37 37 36 36 36 36 36 36 37 39 40 41 40 38 38 37 37 37 38 39 38 39 39 38 38 40 40 40 40 40 40 40 41 42 43 44 44 44 45 45 46 47 47
36 37 36 36 36 35 35 35 36 37 38 40 41 41 38 38 37 37 37 38 38 38 38 38 38 39 40 41 41 41 41 41 41 41 42 43 44 44 44 45 45 47 48 48
37 37 37 36 35 35 35 35 35 37 39 40 40 40 39 39 38 37 38 38 38 39 39 39 39 39 40 40 40 40 41 41 42 42 42 43 44 44 44 46 47 48 48 49
36 38 37 37 36 36 36 35 36 38 39 41 39 39 38 39 39 38 39 39 38 39 39 39 40 40 40 40 40 40 41 41 41 41 42 42 44 45 46 47 48 49 50 50
36 38 38 37 37 37 37 37 37 38 39 40 40 39 38 39 39 38 38 38 38 38 39 39 40 39 39 40 40 41 42 42 42 42 42 43 45 46 47 48 48 48 50 50
37 38 37 37 36 37 38 37 38 38 37 38 39 38 39 39 39 38 38 39 39 39 39 39 40 40 40 40 41 41 41 42 43 44 44 44 45 46 47 48 47 47 47 48
36 37 37 38 38 40 37 35 37 39 38 38 39 40 40 40 41 40 40 40 40 40 40 41 41 41 41 41 41 41 41 42 44 44 45 45 46 46 46 47 47 47 46 46
36 36 37 38 39 40 37 35 36 38 38 37 39 39 40 41 41 40 40 41 41 41 41 41 42 42 42 42 42 43 42 43 43 44 45 45 45 45 45 46 47 47 48 47
36 37 38 39 40 40 38 37 37 39 39 38 39 39 39 40 41 39 39 40 41 42 43 43 43 43 43 43 43 44 44 44 43 44 44 45 45 45 45 46 46 47 48 48
37 38 38 39 41 41 38 39 38 39 38 37 37 38 38 39 40 40 40 40 40 41 42 43 43 43 43 43 43 44 44 43 42 43 43 44 45 46 46 47 47 47 47 48
38 39 39 39 41 41 39 39 38 38 38 37 37 37 38 39 39 40 40 40 40 41 42 42 43 43 43 44 44 43 43 43 42 43 43 44 45 46 46 47 47 48 48 48
38 38 40 41 41 39 40 39 39 38 37 37 37 38 39 39 40 40 41 41 41 41 41 41 42 42 43 44 43 43 43 43 43 43 44 44 45 45 46 47 47 48 48 48
40 39 40 40 40 39 39 39 38 37 38 38 38 39 39 40 40 40 40 40 40 41 41 41 41 42 42 43 43 43 43 43 44 44 45 45 45 46 46 47 47 47 47 46
41 41 41 41 39 39 39 39 39 39 40 39 39 39 39 40 40 40 40 40 40 41 41 41 41 41 41 42 42 43 43 44 44 44 45 46 46 46 46 46 46 45 45 44
41 41 42 41 40 41 40 40 41 40 40 40 40 39 39 40 40 41 40 40 40 40 40 40 40 40 41 41 42 43 43 43 43 44 45 45 45 45 45 44 44 44 44 43